Time,TemperatureF,DewpointF,PressureIn,WindDirection,WindDirectionDegrees,WindSpeedMPH,WindSpeedGustMPH,Humidity,HourlyPrecipIn,Conditions,Clouds,dailyrainin,SoftwareType,DateUTC
2013-11-22 00:01:00,39.4,29.3,29.41,WNW,293,2.0,4.0,67,0.00,,,0.00,meteohub,2013-11-22 05:01:00,
2013-11-22 00:02:00,39.4,29.3,29.41,WNW,293,0.0,4.0,67,0.00,,,0.00,meteohub,2013-11-22 05:02:00,
2013-11-22 00:07:00,39.4,29.3,29.41,NE,45,0.0,4.0,67,0.00,,,0.00,meteohub,2013-11-22 05:07:00,
2013-11-22 00:12:00,39.4,29.3,29.41,West,270,2.0,2.0,67,0.00,,,0.00,meteohub,2013-11-22 05:12:00,
2013-11-22 00:17:00,39.2,29.1,29.41,North,0,0.0,2.0,67,0.00,,,0.00,meteohub,2013-11-22 05:17:00,
2013-11-22 00:22:00,39.2,29.1,29.41,SW,225,0.0,3.0,67,0.00,,,0.00,meteohub,2013-11-22 05:22:00,
2013-11-22 00:27:00,39.0,28.9,29.41,NNE,23,0.0,3.0,67,0.03,,,0.03,meteohub,2013-11-22 05:27:00,
2013-11-22 00:32:00,39.0,28.9,29.40,North,0,0.0,0.0,67,0.03,,,0.03,meteohub,2013-11-22 05:32:00,
2013-11-22 00:37:00,39.0,28.9,29.40,WNW,293,0.0,0.0,67,0.03,,,0.03,meteohub,2013-11-22 05:37:00,
2013-11-22 00:42:00,39.0,28.9,29.40,NNW,338,0.0,0.0,67,0.03,,,0.03,meteohub,2013-11-22 05:42:00,
2013-11-22 00:47:00,38.8,28.8,29.40,WNW,293,0.0,0.0,67,0.03,,,0.03,meteohub,2013-11-22 05:47:00,
2013-11-22 00:52:00,38.8,28.8,29.40,NE,45,0.0,0.0,67,0.03,,,0.03,meteohub,2013-11-22 05:52:00,
2013-11-22 00:57:00,38.8,28.8,29.40,NNE,23,0.0,0.0,67,0.03,,,0.03,meteohub,2013-11-22 05:57:00,
2013-11-22 01:02:00,38.7,28.6,29.40,NW,315,0.0,0.0,67,0.03,,,0.03,meteohub,2013-11-22 06:02:00,
2013-11-22 01:07:00,38.7,28.6,29.40,SSE,158,0.0,0.0,67,0.03,,,0.03,meteohub,2013-11-22 06:07:00,
2013-11-22 01:12:00,38.7,28.6,29.42,West,270,0.0,0.0,67,0.03,,,0.03,meteohub,2013-11-22 06:12:00,
2013-11-22 01:17:00,38.7,28.6,29.42,NW,315,0.0,0.0,67,0.03,,,0.03,meteohub,2013-11-22 06:17:00,
2013-11-22 01:22:00,38.5,28.4,29.42,NNE,23,0.0,0.0,67,0.00,,,0.03,meteohub,2013-11-22 06:22:00,
2013-11-22 01:27:00,38.5,28.4,29.42,SSW,203,0.0,0.0,67,0.00,,,0.03,meteohub,2013-11-22 06:27:00,
2013-11-22 01:32:00,38.3,27.9,29.40,NNE,23,0.0,1.0,66,0.00,,,0.03,meteohub,2013-11-22 06:32:00,
2013-11-22 01:37:00,38.3,27.9,29.40,North,0,0.0,1.0,66,0.00,,,0.03,meteohub,2013-11-22 06:37:00,
2013-11-22 01:42:00,38.3,27.9,29.40,NE,45,2.0,2.0,66,0.00,,,0.03,meteohub,2013-11-22 06:42:00,
2013-11-22 01:47:00,38.3,27.9,29.40,NE,45,0.0,2.0,66,0.00,,,0.03,meteohub,2013-11-22 06:47:00,
2013-11-22 01:52:00,38.1,27.9,29.41,North,0,2.0,2.0,66,0.00,,,0.03,meteohub,2013-11-22 06:52:00,
2013-11-22 01:57:00,38.1,27.9,29.41,North,0,0.0,2.0,66,0.00,,,0.03,meteohub,2013-11-22 06:57:00,
2013-11-22 02:02:00,38.1,27.9,29.41,WSW,248,0.0,2.0,66,0.00,,,0.03,meteohub,2013-11-22 07:02:00,
2013-11-22 02:07:00,37.9,27.7,29.41,North,0,0.0,2.0,66,0.00,,,0.03,meteohub,2013-11-22 07:07:00,
2013-11-22 02:12:00,37.9,27.7,29.41,SW,225,0.0,2.0,66,0.00,,,0.03,meteohub,2013-11-22 07:12:00,
2013-11-22 02:17:00,37.9,27.7,29.41,NNW,338,0.0,0.0,66,0.00,,,0.03,meteohub,2013-11-22 07:17:00,
2013-11-22 02:22:00,37.9,27.7,29.41,SW,225,0.0,0.0,66,0.00,,,0.03,meteohub,2013-11-22 07:22:00,
2013-11-22 02:28:00,37.9,27.7,29.41,North,0,0.0,0.0,66,0.00,,,0.03,meteohub,2013-11-22 07:28:00,
2013-11-22 02:33:00,37.9,27.1,29.42,SSE,158,0.0,2.0,65,0.00,,,0.03,meteohub,2013-11-22 07:33:00,
2013-11-22 02:38:00,37.8,27.1,29.42,North,0,0.0,2.0,65,0.00,,,0.03,meteohub,2013-11-22 07:38:00,
2013-11-22 02:43:00,37.8,27.1,29.42,WNW,293,0.0,2.0,65,0.00,,,0.03,meteohub,2013-11-22 07:43:00,
2013-11-22 02:48:00,37.8,27.1,29.42,WSW,248,0.0,0.0,65,0.00,,,0.03,meteohub,2013-11-22 07:48:00,
2013-11-22 02:53:00,37.8,27.1,29.41,WSW,248,0.0,2.0,65,0.00,,,0.03,meteohub,2013-11-22 07:53:00,
2013-11-22 02:58:00,37.8,27.1,29.41,SSW,203,0.0,2.0,65,0.00,,,0.03,meteohub,2013-11-22 07:58:00,
2013-11-22 03:03:00,37.8,27.1,29.41,WSW,248,0.0,2.0,65,0.00,,,0.03,meteohub,2013-11-22 08:03:00,
2013-11-22 03:08:00,37.6,26.6,29.41,WSW,248,11.0,11.0,64,0.00,,,0.03,meteohub,2013-11-22 08:08:00,
2013-11-22 03:13:00,37.4,26.4,29.42,North,0,7.0,7.0,64,0.00,,,0.03,meteohub,2013-11-22 08:13:00,
2013-11-22 03:18:00,37.0,26.1,29.42,West,270,6.0,11.0,64,0.00,,,0.03,meteohub,2013-11-22 08:18:00,
2013-11-22 03:23:00,36.7,26.1,29.42,WSW,248,9.0,11.0,65,0.03,,,0.06,meteohub,2013-11-22 08:23:00,
2013-11-22 03:28:00,36.3,25.7,29.42,NNE,23,9.0,13.0,65,0.03,,,0.06,meteohub,2013-11-22 08:28:00,
2013-11-22 03:33:00,36.0,25.3,29.43,WNW,293,7.0,13.0,65,0.03,,,0.06,meteohub,2013-11-22 08:33:00,
2013-11-22 03:38:00,35.8,25.2,29.43,WNW,293,9.0,13.0,65,0.03,,,0.06,meteohub,2013-11-22 08:38:00,
2013-11-22 03:43:00,35.6,25.0,29.43,WNW,293,8.0,11.0,65,0.03,,,0.06,meteohub,2013-11-22 08:43:00,
2013-11-22 03:48:00,35.4,24.8,29.43,North,0,11.0,11.0,65,0.03,,,0.06,meteohub,2013-11-22 08:48:00,
2013-11-22 03:53:00,35.2,24.3,29.43,NNW,338,5.0,9.0,64,0.03,,,0.06,meteohub,2013-11-22 08:53:00,
2013-11-22 03:58:00,35.1,24.1,29.43,NW,315,7.0,11.0,64,0.03,,,0.06,meteohub,2013-11-22 08:58:00,
2013-11-22 04:03:00,34.9,23.9,29.43,WSW,248,2.0,11.0,64,0.03,,,0.06,meteohub,2013-11-22 09:03:00,
2013-11-22 04:08:00,34.7,23.7,29.43,WNW,293,8.0,11.0,64,0.03,,,0.06,meteohub,2013-11-22 09:08:00,
2013-11-22 04:13:00,34.3,23.7,29.44,SW,225,2.0,11.0,65,0.03,,,0.06,meteohub,2013-11-22 09:13:00,
2013-11-22 04:18:00,34.3,23.7,29.44,NW,315,6.0,9.0,65,0.03,,,0.06,meteohub,2013-11-22 09:18:00,
2013-11-22 04:23:00,34.3,23.7,29.44,WNW,293,9.0,9.0,65,0.00,,,0.06,meteohub,2013-11-22 09:23:00,
2013-11-22 04:28:00,34.3,23.7,29.44,West,270,4.0,8.0,65,0.00,,,0.06,meteohub,2013-11-22 09:28:00,
2013-11-22 04:34:00,34.3,23.4,29.43,WNW,293,4.0,11.0,64,0.00,,,0.06,meteohub,2013-11-22 09:34:00,
2013-11-22 04:39:00,34.2,23.2,29.43,NW,315,4.0,11.0,64,0.00,,,0.06,meteohub,2013-11-22 09:39:00,
2013-11-22 04:44:00,34.0,23.0,29.43,West,270,5.0,11.0,64,0.00,,,0.06,meteohub,2013-11-22 09:44:00,
2013-11-22 04:49:00,34.0,23.0,29.43,West,270,4.0,6.0,64,0.00,,,0.06,meteohub,2013-11-22 09:49:00,
2013-11-22 04:54:00,33.8,23.0,29.43,NW,315,4.0,9.0,64,0.00,,,0.06,meteohub,2013-11-22 09:54:00,
2013-11-22 04:59:00,33.8,23.0,29.43,West,270,6.0,11.0,64,0.00,,,0.06,meteohub,2013-11-22 09:59:00,
2013-11-22 05:04:00,33.6,22.8,29.43,SSE,158,5.0,12.0,64,0.00,,,0.06,meteohub,2013-11-22 10:04:00,
2013-11-22 05:09:00,33.6,22.8,29.43,WNW,293,5.0,12.0,64,0.00,,,0.06,meteohub,2013-11-22 10:09:00,
2013-11-22 05:14:00,33.6,22.8,29.44,West,270,3.0,12.0,64,0.00,,,0.06,meteohub,2013-11-22 10:14:00,
2013-11-22 05:19:00,33.4,22.6,29.44,WNW,293,5.0,12.0,64,0.00,,,0.06,meteohub,2013-11-22 10:19:00,
2013-11-22 05:24:00,33.3,22.5,29.44,WSW,248,5.0,8.0,64,0.00,,,0.06,meteohub,2013-11-22 10:24:00,
2013-11-22 05:29:00,33.3,22.5,29.44,SW,225,7.0,7.0,64,0.00,,,0.06,meteohub,2013-11-22 10:29:00,
2013-11-22 05:34:00,33.1,22.3,29.44,SW,225,5.0,6.0,64,0.00,,,0.06,meteohub,2013-11-22 10:34:00,
2013-11-22 05:39:00,33.1,22.3,29.44,NE,45,5.0,7.0,64,0.00,,,0.06,meteohub,2013-11-22 10:39:00,
2013-11-22 05:44:00,32.9,22.1,29.44,North,0,5.0,9.0,64,0.00,,,0.06,meteohub,2013-11-22 10:44:00,
2013-11-22 05:49:00,32.9,22.1,29.44,NNE,23,4.0,9.0,64,0.00,,,0.06,meteohub,2013-11-22 10:49:00,
2013-11-22 05:54:00,32.9,22.1,29.44,WNW,293,3.0,6.0,64,0.00,,,0.06,meteohub,2013-11-22 10:54:00,
2013-11-22 05:59:00,32.9,22.1,29.44,WNW,293,3.0,6.0,64,0.00,,,0.06,meteohub,2013-11-22 10:59:00,
2013-11-22 06:04:00,32.9,22.1,29.44,NW,315,4.0,6.0,64,0.00,,,0.06,meteohub,2013-11-22 11:04:00,
2013-11-22 06:09:00,32.7,22.3,29.44,NW,315,3.0,6.0,65,0.00,,,0.06,meteohub,2013-11-22 11:09:00,
2013-11-22 06:14:00,32.7,22.3,29.45,North,0,7.0,7.0,65,0.00,,,0.06,meteohub,2013-11-22 11:14:00,
2013-11-22 06:19:00,32.5,22.1,29.45,WNW,293,4.0,9.0,65,0.00,,,0.06,meteohub,2013-11-22 11:19:00,
2013-11-22 06:24:00,32.4,21.9,29.45,North,0,4.0,9.0,65,0.00,,,0.06,meteohub,2013-11-22 11:24:00,
2013-11-22 06:29:00,32.4,21.9,29.45,NW,315,9.0,9.0,65,0.00,,,0.06,meteohub,2013-11-22 11:29:00,
2013-11-22 06:34:00,32.2,21.7,29.44,NNW,338,4.0,7.0,65,0.00,,,0.06,meteohub,2013-11-22 11:34:00,
2013-11-22 06:39:00,32.2,21.7,29.44,North,0,2.0,9.0,65,0.00,,,0.06,meteohub,2013-11-22 11:39:00,
2013-11-22 06:44:00,32.2,21.7,29.44,SSW,203,3.0,9.0,65,0.00,,,0.06,meteohub,2013-11-22 11:44:00,
2013-11-22 06:49:00,32.2,21.7,29.44,NNE,23,3.0,6.0,65,0.00,,,0.06,meteohub,2013-11-22 11:49:00,
2013-11-22 06:54:00,32.2,21.7,29.44,WSW,248,3.0,6.0,65,0.00,,,0.06,meteohub,2013-11-22 11:54:00,
2013-11-22 06:59:00,32.2,21.7,29.44,North,0,3.0,5.0,65,0.00,,,0.06,meteohub,2013-11-22 11:59:00,
2013-11-22 07:04:00,32.2,21.7,29.44,West,270,6.0,6.0,65,0.00,,,0.06,meteohub,2013-11-22 12:04:00,
2013-11-22 07:09:00,32.2,21.7,29.44,WNW,293,0.0,5.0,65,0.00,,,0.06,meteohub,2013-11-22 12:09:00,
2013-11-22 07:14:00,32.2,21.7,29.47,WSW,248,0.0,11.0,65,0.00,,,0.06,meteohub,2013-11-22 12:14:00,
2013-11-22 07:19:00,32.0,21.6,29.47,SSW,203,4.0,11.0,65,0.00,,,0.06,meteohub,2013-11-22 12:19:00,
2013-11-22 07:24:00,32.0,21.6,29.47,North,0,5.0,11.0,65,0.00,,,0.06,meteohub,2013-11-22 12:24:00,
2013-11-22 07:29:00,31.8,21.4,29.47,WNW,293,4.0,6.0,65,0.00,,,0.06,meteohub,2013-11-22 12:29:00,
2013-11-22 07:34:00,31.6,21.2,29.46,WSW,248,6.0,7.0,65,0.00,,,0.06,meteohub,2013-11-22 12:34:00,
2013-11-22 07:39:00,31.6,21.2,29.46,North,0,6.0,8.0,65,0.00,,,0.06,meteohub,2013-11-22 12:39:00,
2013-11-22 07:44:00,31.5,21.0,29.46,North,0,1.0,8.0,65,0.00,,,0.06,meteohub,2013-11-22 12:44:00,
2013-11-22 07:49:00,31.5,21.0,29.46,ENE,68,4.0,8.0,65,0.00,,,0.06,meteohub,2013-11-22 12:49:00,
2013-11-22 07:54:00,31.3,20.8,29.47,West,270,0.0,8.0,65,0.00,,,0.06,meteohub,2013-11-22 12:54:00,
2013-11-22 07:59:00,31.3,20.8,29.47,WNW,293,0.0,8.0,65,0.00,,,0.06,meteohub,2013-11-22 12:59:00,
2013-11-22 08:04:00,31.1,20.7,29.47,NW,315,0.0,6.0,65,0.00,,,0.06,meteohub,2013-11-22 13:04:00,
2013-11-22 08:09:00,31.1,20.7,29.47,NW,315,0.0,4.0,65,0.00,,,0.06,meteohub,2013-11-22 13:09:00,
2013-11-22 08:14:00,30.9,20.5,29.48,WSW,248,0.0,0.0,65,0.00,,,0.06,meteohub,2013-11-22 13:14:00,
2013-11-22 08:19:00,30.9,20.5,29.48,North,0,0.0,0.0,65,0.00,,,0.06,meteohub,2013-11-22 13:19:00,
2013-11-22 08:25:00,30.7,20.3,29.48,WNW,293,0.0,0.0,65,0.00,,,0.06,meteohub,2013-11-22 13:25:00,
2013-11-22 08:30:00,30.7,20.3,29.48,WNW,293,0.0,0.0,65,0.00,,,0.06,meteohub,2013-11-22 13:30:00,
2013-11-22 08:35:00,30.7,19.9,29.49,West,270,0.0,0.0,64,0.00,,,0.06,meteohub,2013-11-22 13:35:00,
2013-11-22 08:40:00,30.9,20.1,29.49,SSE,158,0.0,0.0,64,0.00,,,0.06,meteohub,2013-11-22 13:40:00,
2013-11-22 08:45:00,30.9,20.1,29.49,WSW,248,0.0,0.0,64,0.00,,,0.06,meteohub,2013-11-22 13:45:00,
2013-11-22 08:50:00,30.9,20.1,29.49,North,0,0.0,0.0,64,0.00,,,0.06,meteohub,2013-11-22 13:50:00,
2013-11-22 08:55:00,30.9,20.1,29.49,West,270,0.0,0.0,64,0.00,,,0.06,meteohub,2013-11-22 13:55:00,
2013-11-22 09:00:00,30.9,20.1,29.49,WNW,293,0.0,0.0,64,0.00,,,0.06,meteohub,2013-11-22 14:00:00,
2013-11-22 09:05:00,30.9,20.1,29.49,North,0,0.0,0.0,64,0.00,,,0.06,meteohub,2013-11-22 14:05:00,
2013-11-22 09:10:00,30.7,19.9,29.49,North,0,0.0,0.0,64,0.00,,,0.06,meteohub,2013-11-22 14:10:00,
2013-11-22 09:15:00,30.6,19.8,29.49,North,0,0.0,0.0,64,0.00,,,0.06,meteohub,2013-11-22 14:15:00,
2013-11-22 09:20:00,30.6,19.8,29.49,NW,315,0.0,0.0,64,0.00,,,0.06,meteohub,2013-11-22 14:20:00,
2013-11-22 09:25:00,30.6,19.8,29.49,NW,315,0.0,0.0,64,0.00,,,0.06,meteohub,2013-11-22 14:25:00,
2013-11-22 09:30:00,30.6,19.8,29.49,WSW,248,0.0,0.0,64,0.00,,,0.06,meteohub,2013-11-22 14:30:00,
2013-11-22 09:35:00,30.4,19.6,29.51,NW,315,0.0,0.0,64,0.00,,,0.06,meteohub,2013-11-22 14:35:00,
2013-11-22 09:40:00,30.6,19.8,29.51,WNW,293,0.0,0.0,64,0.00,,,0.06,meteohub,2013-11-22 14:40:00,
2013-11-22 09:45:00,30.6,19.8,29.51,NNE,23,0.0,0.0,64,0.00,,,0.06,meteohub,2013-11-22 14:45:00,
2013-11-22 09:50:00,30.6,19.8,29.51,North,0,0.0,0.0,64,0.00,,,0.06,meteohub,2013-11-22 14:50:00,
2013-11-22 09:55:00,30.6,19.8,29.52,WNW,293,0.0,0.0,64,0.00,,,0.06,meteohub,2013-11-22 14:55:00,
2013-11-22 10:00:00,30.7,20.3,29.52,NNE,23,0.0,0.0,65,0.00,,,0.06,meteohub,2013-11-22 15:00:00,
2013-11-22 10:05:00,30.7,20.3,29.52,NW,315,0.0,0.0,65,0.00,,,0.06,meteohub,2013-11-22 15:05:00,
2013-11-22 10:10:00,30.7,20.3,29.52,NNW,338,0.0,0.0,65,0.00,,,0.06,meteohub,2013-11-22 15:10:00,
2013-11-22 10:16:00,30.7,20.7,29.52,NNW,338,0.0,0.0,66,0.00,,,0.06,meteohub,2013-11-22 15:16:00,
2013-11-22 10:21:00,30.6,20.5,29.52,NW,315,0.0,0.0,66,0.00,,,0.06,meteohub,2013-11-22 15:21:00,
2013-11-22 10:26:00,30.7,21.0,29.52,West,270,0.0,0.0,67,0.00,,,0.06,meteohub,2013-11-22 15:26:00,
2013-11-22 10:31:00,30.9,21.2,29.53,West,270,0.0,0.0,67,0.00,,,0.06,meteohub,2013-11-22 15:31:00,
2013-11-22 10:36:00,30.6,20.8,29.53,West,270,0.0,0.0,67,0.00,,,0.06,meteohub,2013-11-22 15:36:00,
2013-11-22 10:41:00,30.6,20.8,29.53,North,0,0.0,0.0,67,0.00,,,0.06,meteohub,2013-11-22 15:41:00,
2013-11-22 10:46:00,30.6,20.8,29.53,WSW,248,0.0,0.0,67,0.00,,,0.06,meteohub,2013-11-22 15:46:00,
2013-11-22 10:51:00,30.6,20.8,29.53,WNW,293,0.0,0.0,67,0.00,,,0.06,meteohub,2013-11-22 15:51:00,
2013-11-22 10:56:00,30.4,20.7,29.54,NW,315,0.0,0.0,67,0.00,,,0.06,meteohub,2013-11-22 15:56:00,
2013-11-22 11:01:00,30.6,21.2,29.54,North,0,0.0,0.0,68,0.00,,,0.06,meteohub,2013-11-22 16:01:00,
2013-11-22 11:06:00,30.4,21.0,29.54,WNW,293,0.0,0.0,68,0.00,,,0.06,meteohub,2013-11-22 16:06:00,
2013-11-22 11:11:00,30.4,21.0,29.54,NW,315,0.0,0.0,68,0.00,,,0.06,meteohub,2013-11-22 16:11:00,
2013-11-22 11:16:00,30.2,20.5,29.54,West,270,0.0,0.0,67,0.00,,,0.06,meteohub,2013-11-22 16:16:00,
2013-11-22 11:21:00,30.0,20.5,29.54,SSE,158,0.0,0.0,67,0.00,,,0.06,meteohub,2013-11-22 16:21:00,
2013-11-22 11:26:00,29.8,20.3,29.54,NW,315,0.0,0.0,67,0.00,,,0.06,meteohub,2013-11-22 16:26:00,
2013-11-22 11:31:00,29.8,20.3,29.55,NW,315,0.0,0.0,67,0.00,,,0.06,meteohub,2013-11-22 16:31:00,
2013-11-22 11:36:00,29.8,19.9,29.55,SW,225,0.0,0.0,66,0.00,,,0.06,meteohub,2013-11-22 16:36:00,
2013-11-22 11:41:00,29.7,19.8,29.55,NNW,338,0.0,0.0,66,0.00,,,0.06,meteohub,2013-11-22 16:41:00,
2013-11-22 11:46:00,29.8,19.9,29.55,WNW,293,0.0,0.0,66,0.00,,,0.06,meteohub,2013-11-22 16:46:00,
2013-11-22 11:51:00,29.8,19.9,29.55,NW,315,0.0,0.0,66,0.00,,,0.06,meteohub,2013-11-22 16:51:00,
2013-11-22 11:56:00,30.0,19.8,29.55,SE,135,0.0,0.0,65,0.00,,,0.06,meteohub,2013-11-22 16:56:00,
2013-11-22 12:01:00,30.0,19.8,29.55,North,0,0.0,0.0,65,0.00,,,0.06,meteohub,2013-11-22 17:01:00,
2013-11-22 12:06:00,30.0,19.8,29.55,North,0,0.0,0.0,65,0.00,,,0.06,meteohub,2013-11-22 17:06:00,
2013-11-22 12:11:00,30.0,19.8,29.54,North,0,0.0,0.0,65,0.00,,,0.06,meteohub,2013-11-22 17:11:00,
2013-11-22 12:16:00,30.0,19.4,29.54,South,180,0.0,0.0,64,0.00,,,0.06,meteohub,2013-11-22 17:16:00,
2013-11-22 12:22:00,30.0,19.4,29.54,SW,225,0.0,0.0,64,0.00,,,0.06,meteohub,2013-11-22 17:22:00,
2013-11-22 12:27:00,30.0,19.4,29.54,NW,315,0.0,0.0,64,0.00,,,0.06,meteohub,2013-11-22 17:27:00,
2013-11-22 12:32:00,30.2,19.6,29.55,East,90,0.0,0.0,64,0.00,,,0.06,meteohub,2013-11-22 17:32:00,
2013-11-22 12:37:00,30.0,19.4,29.55,NNW,338,0.0,0.0,64,0.00,,,0.06,meteohub,2013-11-22 17:37:00,
2013-11-22 12:42:00,30.0,19.4,29.55,WNW,293,0.0,0.0,64,0.00,,,0.06,meteohub,2013-11-22 17:42:00,
2013-11-22 12:47:00,30.2,19.6,29.55,North,0,0.0,0.0,64,0.00,,,0.06,meteohub,2013-11-22 17:47:00,
2013-11-22 12:52:00,30.2,19.6,29.55,West,270,0.0,0.0,64,0.00,,,0.06,meteohub,2013-11-22 17:52:00,
2013-11-22 12:57:00,30.2,19.9,29.55,NW,315,0.0,0.0,65,0.00,,,0.06,meteohub,2013-11-22 17:57:00,
2013-11-22 13:02:00,30.2,19.9,29.55,SE,135,0.0,0.0,65,0.00,,,0.06,meteohub,2013-11-22 18:02:00,
2013-11-22 13:07:00,30.4,19.9,29.55,WNW,293,0.0,0.0,65,0.00,,,0.06,meteohub,2013-11-22 18:07:00,
2013-11-22 13:12:00,30.6,20.1,29.55,NW,315,0.0,0.0,65,0.00,,,0.06,meteohub,2013-11-22 18:12:00,
2013-11-22 13:17:00,30.6,20.1,29.55,North,0,0.0,0.0,65,0.00,,,0.06,meteohub,2013-11-22 18:17:00,
2013-11-22 13:22:00,30.6,20.5,29.55,NW,315,0.0,0.0,66,0.00,,,0.06,meteohub,2013-11-22 18:22:00,
2013-11-22 13:27:00,30.7,21.0,29.55,NW,315,0.0,0.0,67,0.00,,,0.06,meteohub,2013-11-22 18:27:00,
2013-11-22 13:32:00,30.9,21.2,29.55,NNW,338,0.0,0.0,67,0.00,,,0.06,meteohub,2013-11-22 18:32:00,
2013-11-22 13:37:00,31.3,22.3,29.55,WSW,248,0.0,0.0,69,0.00,,,0.06,meteohub,2013-11-22 18:37:00,
2013-11-22 13:42:00,31.6,23.0,29.55,NW,315,0.0,0.0,70,0.00,,,0.06,meteohub,2013-11-22 18:42:00,
2013-11-22 13:47:00,31.6,23.4,29.55,WNW,293,0.0,0.0,71,0.00,,,0.06,meteohub,2013-11-22 18:47:00,
2013-11-22 13:52:00,31.5,23.5,29.55,NW,315,0.0,0.0,72,0.00,,,0.06,meteohub,2013-11-22 18:52:00,
2013-11-22 13:57:00,31.5,23.5,29.55,NW,315,0.0,0.0,72,0.00,,,0.06,meteohub,2013-11-22 18:57:00,
2013-11-22 14:03:00,31.3,23.7,29.55,NE,45,0.0,0.0,73,0.00,,,0.06,meteohub,2013-11-22 19:03:00,
2013-11-22 14:08:00,31.3,23.7,29.55,NW,315,0.0,0.0,73,0.00,,,0.06,meteohub,2013-11-22 19:08:00,
2013-11-22 14:13:00,31.1,23.5,29.56,WNW,293,0.0,0.0,73,0.00,,,0.06,meteohub,2013-11-22 19:13:00,
2013-11-22 14:18:00,30.9,23.4,29.56,West,270,0.0,0.0,73,0.00,,,0.06,meteohub,2013-11-22 19:18:00,
2013-11-22 14:23:00,30.9,23.5,29.56,SW,225,0.0,0.0,74,0.00,,,0.06,meteohub,2013-11-22 19:23:00,
2013-11-22 14:28:00,30.9,23.5,29.56,NW,315,0.0,0.0,74,0.00,,,0.06,meteohub,2013-11-22 19:28:00,
2013-11-22 14:33:00,30.9,23.5,29.55,NW,315,0.0,0.0,74,0.00,,,0.06,meteohub,2013-11-22 19:33:00,
2013-11-22 14:38:00,30.9,23.5,29.55,SE,135,0.0,0.0,74,0.00,,,0.06,meteohub,2013-11-22 19:38:00,
2013-11-22 14:43:00,31.3,23.9,29.55,NW,315,0.0,0.0,74,0.00,,,0.06,meteohub,2013-11-22 19:43:00,
2013-11-22 14:48:00,31.3,23.9,29.55,East,90,0.0,0.0,74,0.00,,,0.06,meteohub,2013-11-22 19:48:00,
2013-11-22 14:53:00,31.1,23.7,29.55,SE,135,0.0,0.0,74,0.00,,,0.06,meteohub,2013-11-22 19:53:00,
2013-11-22 14:59:00,30.9,23.5,29.55,WNW,293,0.0,0.0,74,0.00,,,0.06,meteohub,2013-11-22 19:59:00,
2013-11-22 15:04:00,30.9,23.5,29.55,SSE,158,0.0,0.0,74,0.00,,,0.06,meteohub,2013-11-22 20:04:00,
2013-11-22 15:09:00,31.1,23.7,29.55,NNW,338,0.0,0.0,74,0.00,,,0.06,meteohub,2013-11-22 20:09:00,
2013-11-22 15:14:00,31.1,23.7,29.56,WNW,293,0.0,0.0,74,0.00,,,0.06,meteohub,2013-11-22 20:14:00,
2013-11-22 15:19:00,31.1,23.7,29.56,NW,315,0.0,0.0,74,0.00,,,0.06,meteohub,2013-11-22 20:19:00,
2013-11-22 15:24:00,31.1,23.7,29.56,WNW,293,0.0,0.0,74,0.00,,,0.06,meteohub,2013-11-22 20:24:00,
2013-11-22 15:29:00,31.1,23.7,29.56,WSW,248,0.0,0.0,74,0.00,,,0.06,meteohub,2013-11-22 20:29:00,
2013-11-22 15:34:00,31.3,23.9,29.56,NNW,338,0.0,0.0,74,0.00,,,0.06,meteohub,2013-11-22 20:34:00,
2013-11-22 15:39:00,31.3,23.9,29.56,SW,225,0.0,0.0,74,0.00,,,0.06,meteohub,2013-11-22 20:39:00,
2013-11-22 15:44:00,31.6,24.3,29.56,NNW,338,0.0,0.0,74,0.00,,,0.06,meteohub,2013-11-22 20:44:00,
2013-11-22 15:49:00,31.6,24.3,29.56,WSW,248,0.0,0.0,74,0.00,,,0.06,meteohub,2013-11-22 20:49:00,
2013-11-22 15:54:00,31.6,24.3,29.57,NNW,338,0.0,0.0,74,0.00,,,0.06,meteohub,2013-11-22 20:54:00,
2013-11-22 15:59:00,31.5,24.1,29.57,ESE,113,0.0,0.0,74,0.00,,,0.06,meteohub,2013-11-22 20:59:00,
2013-11-22 16:04:00,31.5,24.1,29.57,SW,225,0.0,0.0,74,0.00,,,0.06,meteohub,2013-11-22 21:04:00,
2013-11-22 16:09:00,31.5,24.1,29.57,WNW,293,0.0,0.0,74,0.00,,,0.06,meteohub,2013-11-22 21:09:00,
2013-11-22 16:14:00,31.5,24.1,29.57,WNW,293,0.0,0.0,74,0.00,,,0.06,meteohub,2013-11-22 21:14:00,
2013-11-22 16:19:00,31.3,23.9,29.57,WNW,293,0.0,0.0,74,0.00,,,0.06,meteohub,2013-11-22 21:19:00,
2013-11-22 16:24:00,31.1,23.7,29.57,SW,225,0.0,0.0,74,0.00,,,0.06,meteohub,2013-11-22 21:24:00,
2013-11-22 16:29:00,30.9,23.5,29.57,West,270,0.0,0.0,74,0.00,,,0.06,meteohub,2013-11-22 21:29:00,
2013-11-22 16:34:00,30.9,23.5,29.57,SW,225,0.0,0.0,74,0.00,,,0.06,meteohub,2013-11-22 21:34:00,
2013-11-22 16:39:00,30.6,23.0,29.57,WSW,248,0.0,0.0,73,0.00,,,0.06,meteohub,2013-11-22 21:39:00,
2013-11-22 16:44:00,30.6,23.0,29.57,SW,225,0.0,0.0,73,0.00,,,0.06,meteohub,2013-11-22 21:44:00,
2013-11-22 16:49:00,30.6,23.2,29.57,WSW,248,0.0,0.0,74,0.00,,,0.06,meteohub,2013-11-22 21:49:00,
2013-11-22 16:54:00,30.4,23.2,29.57,WNW,293,0.0,0.0,74,0.00,,,0.06,meteohub,2013-11-22 21:54:00,
2013-11-22 17:00:00,30.6,23.2,29.57,SSE,158,0.0,0.0,74,0.00,,,0.06,meteohub,2013-11-22 22:00:00,
2013-11-22 17:05:00,30.4,23.2,29.57,South,180,0.0,0.0,74,0.00,,,0.06,meteohub,2013-11-22 22:05:00,
2013-11-22 17:10:00,30.4,23.2,29.57,NW,315,0.0,0.0,74,0.00,,,0.06,meteohub,2013-11-22 22:10:00,
2013-11-22 17:15:00,30.2,23.0,29.58,SSE,158,0.0,0.0,74,0.00,,,0.06,meteohub,2013-11-22 22:15:00,
2013-11-22 17:20:00,30.0,23.0,29.58,WNW,293,0.0,0.0,75,0.00,,,0.06,meteohub,2013-11-22 22:20:00,
2013-11-22 17:25:00,30.0,23.0,29.58,SW,225,0.0,0.0,75,0.00,,,0.06,meteohub,2013-11-22 22:25:00,
2013-11-22 17:30:00,29.8,22.8,29.58,WSW,248,0.0,0.0,75,0.00,,,0.06,meteohub,2013-11-22 22:30:00,
2013-11-22 17:35:00,29.8,22.8,29.58,SW,225,0.0,0.0,75,0.00,,,0.06,meteohub,2013-11-22 22:35:00,
2013-11-22 17:40:00,29.8,22.8,29.58,SW,225,0.0,0.0,75,0.00,,,0.06,meteohub,2013-11-22 22:40:00,
2013-11-22 17:45:00,29.8,22.8,29.58,SSW,203,0.0,0.0,75,0.00,,,0.06,meteohub,2013-11-22 22:45:00,
2013-11-22 17:50:00,29.8,22.8,29.58,SSW,203,0.0,0.0,75,0.00,,,0.06,meteohub,2013-11-22 22:50:00,
2013-11-22 17:55:00,29.7,22.6,29.58,SW,225,0.0,0.0,75,0.00,,,0.06,meteohub,2013-11-22 22:55:00,
2013-11-22 18:00:00,29.7,22.6,29.58,SSW,203,0.0,0.0,75,0.00,,,0.06,meteohub,2013-11-22 23:00:00,
2013-11-22 18:05:00,29.7,22.6,29.58,SSE,158,0.0,0.0,75,0.00,,,0.06,meteohub,2013-11-22 23:05:00,
2013-11-22 18:10:00,29.7,22.6,29.58,SW,225,0.0,0.0,75,0.00,,,0.06,meteohub,2013-11-22 23:10:00,
2013-11-22 18:15:00,29.7,22.6,29.58,SW,225,0.0,0.0,75,0.00,,,0.06,meteohub,2013-11-22 23:15:00,
2013-11-22 18:20:00,29.7,22.6,29.58,NW,315,0.0,0.0,75,0.00,,,0.06,meteohub,2013-11-22 23:20:00,
2013-11-22 18:25:00,29.7,22.6,29.58,SSE,158,0.0,0.0,75,0.00,,,0.06,meteohub,2013-11-22 23:25:00,
2013-11-22 18:30:00,29.7,22.6,29.58,South,180,0.0,0.0,75,0.00,,,0.06,meteohub,2013-11-22 23:30:00,
2013-11-22 18:35:00,29.7,22.6,29.57,WNW,293,0.0,0.0,75,0.00,,,0.06,meteohub,2013-11-22 23:35:00,
2013-11-22 18:40:00,29.7,22.6,29.57,SSW,203,0.0,0.0,75,0.00,,,0.06,meteohub,2013-11-22 23:40:00,
2013-11-22 18:45:00,29.7,22.6,29.57,WNW,293,0.0,0.0,75,0.00,,,0.06,meteohub,2013-11-22 23:45:00,
2013-11-22 18:50:00,29.7,22.6,29.57,South,180,0.0,0.0,75,0.00,,,0.06,meteohub,2013-11-22 23:50:00,
2013-11-22 18:55:00,29.7,22.6,29.56,East,90,0.0,0.0,75,0.00,,,0.06,meteohub,2013-11-22 23:55:00,
2013-11-22 19:00:00,29.7,22.6,29.56,WNW,293,0.0,0.0,75,0.00,,,0.06,meteohub,2013-11-23 00:00:00,
2013-11-22 19:05:00,29.8,22.8,29.56,WSW,248,0.0,0.0,75,0.00,,,0.06,meteohub,2013-11-23 00:05:00,
2013-11-22 19:10:00,29.7,22.6,29.56,WSW,248,0.0,0.0,75,0.00,,,0.06,meteohub,2013-11-23 00:10:00,
2013-11-22 19:15:00,29.8,22.8,29.56,SSE,158,0.0,0.0,75,0.00,,,0.06,meteohub,2013-11-23 00:15:00,
2013-11-22 19:20:00,29.8,22.8,29.56,SE,135,0.0,0.0,75,0.00,,,0.06,meteohub,2013-11-23 00:20:00,
2013-11-22 19:25:00,29.8,22.8,29.56,SW,225,0.0,0.0,75,0.00,,,0.06,meteohub,2013-11-23 00:25:00,
2013-11-22 19:30:00,29.8,22.8,29.56,SSW,203,0.0,0.0,75,0.00,,,0.06,meteohub,2013-11-23 00:30:00,
2013-11-22 19:35:00,29.8,22.8,29.56,SSE,158,0.0,0.0,75,0.00,,,0.06,meteohub,2013-11-23 00:35:00,
2013-11-22 19:41:00,29.8,22.8,29.56,SSW,203,0.0,0.0,75,0.00,,,0.06,meteohub,2013-11-23 00:41:00,
2013-11-22 19:46:00,29.7,22.6,29.56,SW,225,0.0,0.0,75,0.00,,,0.06,meteohub,2013-11-23 00:46:00,
2013-11-22 19:51:00,29.7,22.6,29.56,WNW,293,0.0,0.0,75,0.00,,,0.06,meteohub,2013-11-23 00:51:00,
2013-11-22 19:56:00,29.8,22.8,29.55,SE,135,0.0,0.0,75,0.00,,,0.06,meteohub,2013-11-23 00:56:00,
2013-11-22 20:01:00,29.7,22.6,29.55,SSE,158,0.0,0.0,75,0.00,,,0.06,meteohub,2013-11-23 01:01:00,
2013-11-22 20:06:00,29.7,22.6,29.55,WNW,293,0.0,0.0,75,0.00,,,0.06,meteohub,2013-11-23 01:06:00,
2013-11-22 20:11:00,29.7,22.6,29.55,SSE,158,0.0,0.0,75,0.00,,,0.06,meteohub,2013-11-23 01:11:00,
2013-11-22 20:16:00,29.7,22.6,29.55,SSE,158,0.0,0.0,75,0.00,,,0.06,meteohub,2013-11-23 01:16:00,
2013-11-22 20:21:00,29.7,22.6,29.55,SW,225,0.0,0.0,75,0.00,,,0.06,meteohub,2013-11-23 01:21:00,
2013-11-22 20:26:00,29.7,22.6,29.55,SSW,203,0.0,0.0,75,0.00,,,0.06,meteohub,2013-11-23 01:26:00,
2013-11-22 20:31:00,29.7,22.6,29.55,SSW,203,0.0,0.0,75,0.00,,,0.06,meteohub,2013-11-23 01:31:00,
2013-11-22 20:36:00,29.8,22.8,29.54,SW,225,0.0,0.0,75,0.00,,,0.06,meteohub,2013-11-23 01:36:00,
2013-11-22 20:41:00,29.8,22.8,29.54,SSE,158,0.0,0.0,75,0.00,,,0.06,meteohub,2013-11-23 01:41:00,
2013-11-22 20:46:00,29.8,22.8,29.54,NNE,23,0.0,0.0,75,0.00,,,0.06,meteohub,2013-11-23 01:46:00,
2013-11-22 20:51:00,30.0,23.0,29.54,SSW,203,0.0,0.0,75,0.00,,,0.06,meteohub,2013-11-23 01:51:00,
2013-11-22 20:56:00,30.0,23.0,29.54,SSW,203,0.0,0.0,75,0.00,,,0.06,meteohub,2013-11-23 01:56:00,
2013-11-22 21:01:00,30.2,23.2,29.54,South,180,0.0,0.0,75,0.00,,,0.06,meteohub,2013-11-23 02:01:00,
2013-11-22 21:06:00,30.4,23.7,29.54,South,180,0.0,0.0,76,0.00,,,0.06,meteohub,2013-11-23 02:06:00,
2013-11-22 21:11:00,30.6,23.9,29.53,WSW,248,0.0,0.0,76,0.00,,,0.06,meteohub,2013-11-23 02:11:00,
2013-11-22 21:16:00,30.6,23.9,29.53,South,180,0.0,0.0,76,0.00,,,0.06,meteohub,2013-11-23 02:16:00,
2013-11-22 21:21:00,30.6,23.9,29.53,South,180,0.0,0.0,76,0.00,,,0.06,meteohub,2013-11-23 02:21:00,
2013-11-22 21:26:00,30.6,23.9,29.53,SSW,203,0.0,0.0,76,0.00,,,0.06,meteohub,2013-11-23 02:26:00,
2013-11-22 21:31:00,30.6,23.9,29.53,SW,225,0.0,0.0,76,0.00,,,0.06,meteohub,2013-11-23 02:31:00,
2013-11-22 21:36:00,30.6,23.5,29.52,WSW,248,0.0,0.0,75,0.00,,,0.06,meteohub,2013-11-23 02:36:00,
2013-11-22 21:41:00,30.4,23.4,29.52,SSW,203,0.0,0.0,75,0.00,,,0.06,meteohub,2013-11-23 02:41:00,
2013-11-22 21:46:00,30.2,23.5,29.52,SW,225,0.0,0.0,76,0.00,,,0.06,meteohub,2013-11-23 02:46:00,
2013-11-22 21:51:00,30.4,23.4,29.52,SSW,203,0.0,0.0,75,0.00,,,0.06,meteohub,2013-11-23 02:51:00,
2013-11-22 21:56:00,30.4,23.4,29.50,SSE,158,0.0,0.0,75,0.00,,,0.06,meteohub,2013-11-23 02:56:00,
2013-11-22 22:01:00,30.4,23.4,29.50,SSE,158,0.0,0.0,75,0.00,,,0.06,meteohub,2013-11-23 03:01:00,
2013-11-22 22:06:00,30.6,23.5,29.50,SSW,203,0.0,0.0,75,0.00,,,0.06,meteohub,2013-11-23 03:06:00,
2013-11-22 22:11:00,30.4,23.4,29.49,SSE,158,0.0,0.0,75,0.00,,,0.06,meteohub,2013-11-23 03:11:00,
2013-11-22 22:16:00,30.4,23.4,29.49,SSW,203,0.0,0.0,75,0.00,,,0.06,meteohub,2013-11-23 03:16:00,
2013-11-22 22:21:00,30.6,23.9,29.49,SSW,203,0.0,0.0,76,0.00,,,0.06,meteohub,2013-11-23 03:21:00,
2013-11-22 22:26:00,30.6,23.9,29.49,SW,225,0.0,0.0,76,0.00,,,0.06,meteohub,2013-11-23 03:26:00,
2013-11-22 22:31:00,30.6,23.9,29.49,SSW,203,0.0,0.0,76,0.00,,,0.06,meteohub,2013-11-23 03:31:00,
2013-11-22 22:36:00,30.6,23.9,29.49,South,180,0.0,0.0,76,0.00,,,0.06,meteohub,2013-11-23 03:36:00,
2013-11-22 22:41:00,30.6,23.9,29.49,SSE,158,0.0,0.0,76,0.00,,,0.06,meteohub,2013-11-23 03:41:00,
2013-11-22 22:46:00,30.6,23.9,29.49,SW,225,0.0,0.0,76,0.00,,,0.06,meteohub,2013-11-23 03:46:00,
2013-11-22 22:51:00,30.6,23.9,29.48,SSE,158,0.0,0.0,76,0.00,,,0.06,meteohub,2013-11-23 03:51:00,
2013-11-22 22:56:00,30.6,23.9,29.48,South,180,0.0,0.0,76,0.00,,,0.06,meteohub,2013-11-23 03:56:00,
2013-11-22 23:01:00,30.6,23.9,29.48,South,180,0.0,0.0,76,0.00,,,0.06,meteohub,2013-11-23 04:01:00,
2013-11-22 23:06:00,30.6,23.9,29.48,South,180,0.0,0.0,76,0.00,,,0.06,meteohub,2013-11-23 04:06:00,
2013-11-22 23:11:00,30.6,23.9,29.47,SSE,158,0.0,0.0,76,0.00,,,0.06,meteohub,2013-11-23 04:11:00,
2013-11-22 23:16:00,30.6,23.9,29.47,SW,225,0.0,0.0,76,0.00,,,0.06,meteohub,2013-11-23 04:16:00,
2013-11-22 23:21:00,30.6,23.9,29.47,SW,225,0.0,0.0,76,0.00,,,0.06,meteohub,2013-11-23 04:21:00,
2013-11-22 23:26:00,30.6,23.9,29.47,SSW,203,0.0,0.0,76,0.00,,,0.06,meteohub,2013-11-23 04:26:00,
2013-11-22 23:31:00,30.6,23.9,29.45,SSE,158,0.0,0.0,76,0.00,,,0.06,meteohub,2013-11-23 04:31:00,
2013-11-22 23:36:00,30.6,23.9,29.45,SSW,203,0.0,0.0,76,0.00,,,0.06,meteohub,2013-11-23 04:36:00,
2013-11-22 23:41:00,30.6,23.9,29.45,SW,225,0.0,0.0,76,0.00,,,0.06,meteohub,2013-11-23 04:41:00,
2013-11-22 23:46:00,30.6,23.9,29.45,South,180,0.0,0.0,76,0.00,,,0.06,meteohub,2013-11-23 04:46:00,
2013-11-22 23:51:00,30.6,23.9,29.44,South,180,0.0,0.0,76,0.00,,,0.06,meteohub,2013-11-23 04:51:00,
2013-11-22 23:56:00,30.6,23.9,29.44,SSW,203,0.0,0.0,76,0.00,,,0.06,meteohub,2013-11-23 04:56:00,